User: anonymous   Login
Location: La B�doule
(43.2468°N, 5.5934°E)
Time: 17:46:49
(UTC+00:00)
Language:

STARLINK-1365 - Orbit

View from above orbital plane
View from above orbital plane
View from above satellite
View from above satellite

Ground track
Ground track

The orbit data is extracted from the following two-line orbital elements,

1 45590C 20025BM  20228.44544769  .00007258  00000-0  49728-3 0  2289
2 45590  53.0036 229.6878 0001168  84.4224  63.4460 15.05562935    19
Epoch (UTC): 15 August 2020 10:41:26
Eccentricity: 0.0001168
inclination: 53.0036°
perigee height: 549 km
apogee height: 550 km
right ascension of ascending node: 229.6878°
argument of perigee: 84.4224°
revolutions per day: 15.05562935
mean anomaly at epoch: 63.4460°
orbit number at epoch: 1

The dashed part of the orbit path shows where the satellite is in the earth's shadow,  

DLR